This demonstration page uses our WeatherBlox Daily Observations layout. Learn more.

Left ArrowRight Arrow

40.92945, -100.16068

Hourly Observations for October 18, 2016

Temp ( °F °C ) Dew Point ( °F °C ) Humidity (%) Winds ( mph kmh ) Pressure ( in mb ) Visibility ( mi km ) Precip ( " mm )
12:15 am 00:15 Clear 53 11.5 33 0.6 47 47 W 8 13 29.71 1006 10 16 N/A
12:35 am 00:35 Clear 53 11.7 33 0.6 47 47 NW 12 19 29.74 1007 10 16 N/A
12:55 am 00:55 Clear 52 11.1 33 0.7 49 49 WNW 7 11 29.74 1007 10 16 N/A
1:15 am 01:15 Clear 53 11.6 34 1.2 49 49 WNW 12 19 29.74 1007 10 16 N/A
1:35 am 01:35 Clear 53 11.4 36 2.1 53 53 NW 10 17 29.74 1007 10 16 N/A
1:55 am 01:55 Clear 52 11 37 2.8 57 57 NW 9 15 29.80 1009 10 16 N/A
2:15 am 02:15 Clear 51 10.4 38 3.5 63 63 WNW 8 13 29.83 1010 10 16 N/A
2:35 am 02:35 Clear 49 9.4 39 3.8 68 68 WNW 6 9 29.83 1010 10 16 N/A
2:55 am 02:55 Clear 46 8 38 3.4 73 73 W 7 11 29.85 1011 10 16 N/A
3:15 am 03:15 Clear 45 7.2 39 3.7 79 79 WNW 7 11 29.88 1012 10 16 N/A
3:35 am 03:35 Clear 43 6.3 38 3.1 80 80 WNW 7 11 29.88 1012 10 16 N/A
3:55 am 03:55 Clear 44 6.9 38 3.6 80 80 WNW 7 11 29.88 1012 10 16 N/A
4:15 am 04:15 Clear 42 5.3 37 2.6 83 83 WNW 7 11 29.91 1013 10 16 N/A
4:35 am 04:35 Clear 44 6.4 38 3.4 81 81 W 5 7 29.91 1013 10 16 N/A
4:55 am 04:55 Clear 43 5.9 38 3.2 83 83 W 7 11 29.91 1013 10 16 N/A
5:15 am 05:15 Clear 42 5.3 38 3.1 86 86 W 6 9 29.94 1014 10 16 N/A
5:35 am 05:35 Clear 40 4.7 36 2.3 85 85 W 8 13 29.94 1014 10 16 N/A
5:55 am 05:55 Clear 40 4.5 36 2.4 86 86 N N/A 29.97 1015 10 16 N/A
6:15 am 06:15 Clear 41 4.8 36 2.2 83 83 W 5 7 29.97 1015 10 16 N/A
6:35 am 06:35 Clear 40 4.6 36 2.1 84 84 N N/A 29.97 1015 10 16 N/A
6:55 am 06:55 Clear 39 4.1 35 1.7 85 85 W 5 7 30.00 1016 10 16 N/A
7:15 am 07:15 Clear 39 3.9 35 1.6 85 85 W 7 11 30.00 1016 10 16 N/A
7:35 am 07:35 Clear 39 4.1 36 2.2 88 88 W 7 11 30.00 1016 10 16 N/A
7:55 am 07:55 Sunny 38 3.2 34 1.3 88 88 WNW 6 9 30.00 1016 10 16 N/A
8:15 am 08:15 Sunny 37 2.7 34 0.9 88 88 WNW 6 9 30.06 1018 10 16 N/A
8:35 am 08:35 Sunny 39 3.8 36 2.1 89 89 W 5 7 30.03 1017 10 16 N/A
8:55 am 08:55 Sunny 43 6.2 38 3.6 84 84 W 5 7 30.03 1017 10 16 N/A
9:15 am 09:15 Sunny 47 8.1 40 4.2 77 77 W 7 11 30.03 1017 10 16 N/A
9:35 am 09:35 Sunny 49 9.3 39 3.8 69 69 W 9 15 30.03 1017 10 16 N/A
9:55 am 09:55 Sunny 51 10.7 39 4 64 64 W 8 13 30.00 1016 10 16 N/A
10:15 am 10:15 Sunny 53 11.9 39 3.8 58 58 W 7 11 30.03 1017 10 16 N/A
10:35 am 10:35 Sunny 55 12.7 39 3.9 55 55 W 10 17 30.03 1017 10 16 N/A
10:55 am 10:55 Sunny 56 13.5 38 3.3 50 50 WNW 12 19 30.00 1016 10 16 N/A
11:15 am 11:15 Sunny 58 14.2 38 3.4 48 48 NW 13 20 30.00 1016 10 16 N/A
11:35 am 11:35 Sunny 59 14.9 39 3.8 48 48 WNW 10 17 30.00 1016 10 16 N/A
11:55 am 11:55 Sunny 60 15.5 38 3.4 45 45 NNW 13 20 30.00 1016 10 16 N/A
12:15 pm 12:15 Sunny 60 15.7 38 3.6 45 45 NW 12 19 30.00 1016 10 16 N/A
12:35 pm 12:35 Sunny 61 16 38 3.3 43 43 WNW 7 11 30.00 1016 10 16 N/A
12:55 pm 12:55 Sunny 62 16.5 37 2.7 40 40 NW 9 15 30.00 1016 10 16 N/A
1:15 pm 13:15 Sunny 63 17.2 37 2.6 38 38 NW 9 15 29.97 1015 10 16 N/A
1:35 pm 13:35 Sunny 63 17.3 36 2.2 37 37 N 6 9 29.94 1014 10 16 N/A
1:55 pm 13:55 Sunny 66 18.7 36 2.1 33 33 N 6 9 29.94 1014 10 16 N/A
2:15 pm 14:15 Sunny 65 18.3 34 1.2 32 32 WNW 8 13 29.94 1014 10 16 N/A
2:35 pm 14:35 Sunny 67 19.2 32 0.1 28 28 NNW 3 6 29.91 1013 10 16 N/A
2:55 pm 14:55 Sunny 67 19.2 33 0.3 28 28 NNW 5 7 29.91 1013 10 16 N/A
3:15 pm 15:15 Sunny 67 19.2 32 -0.1 27 27 NNE 3 6 29.91 1013 10 16 N/A
3:35 pm 15:35 Sunny 67 19.5 33 0.3 28 28 N 6 9 29.91 1013 10 16 N/A
3:55 pm 15:55 Sunny 68 20 33 0.7 28 28 N 5 7 29.88 1012 10 16 N/A
4:15 pm 16:15 Sunny 68 19.8 31 -0.7 25 25 W 5 7 29.88 1012 10 16 N/A
4:35 pm 16:35 Sunny 68 19.9 30 -1.3 24 24 N N/A 29.88 1012 10 16 N/A
4:55 pm 16:55 Sunny 67 19.5 31 -0.5 26 26 N N/A 29.91 1013 10 16 N/A
5:15 pm 17:15 Sunny 67 19.6 31 -0.3 26 26 N N/A 29.88 1012 10 16 N/A
5:35 pm 17:35 Sunny 67 19.3 31 -0.7 26 26 N N/A 29.91 1013 10 16 N/A
5:55 pm 17:55 Sunny 67 19.2 31 -0.4 27 27 N N/A 29.91 1013 10 16 N/A
6:15 pm 18:15 Sunny 65 18.3 37 2.6 35 35 N N/A 29.91 1013 10 16 N/A
6:35 pm 18:35 Sunny 65 18.1 30 -1 28 28 N N/A 29.91 1013 10 16 N/A
6:55 pm 18:55 Clear 61 16.3 32 undefined 33 33 N N/A 29.91 1013 7 11 N/A
7:15 pm 19:15 Clear 59 14.9 34 0.9 39 39 N N/A 29.94 1014 10 16 N/A
7:35 pm 19:35 Clear 57 13.8 33 0.6 41 41 ENE 7 11 29.97 1015 7 11 N/A
7:55 pm 19:55 Clear 53 11.5 34 1 49 49 E 7 11 30.00 1016 10 16 N/A
8:15 pm 20:15 Clear 51 10.4 34 1.2 53 53 E 6 9 30.00 1016 10 16 N/A
8:35 pm 20:35 Clear 51 10.7 35 1.9 55 55 ESE 5 7 30.00 1016 10 16 N/A
8:55 pm 20:55 Clear 51 10.6 35 1.6 54 54 ESE 5 7 30.00 1016 10 16 N/A
9:15 pm 21:15 Partly Cloudy 53 11.6 36 2.1 52 52 ESE 3 6 30.00 1016 10 16 N/A
9:35 pm 21:35 Mostly Cloudy 55 12.5 35 1.5 47 47 SE 3 6 30.03 1017 10 16 N/A
9:55 pm 21:55 Cloudy 54 12 36 2 51 51 N N/A 30.03 1017 10 16 N/A
10:15 pm 22:15 Cloudy 53 11.9 37 2.6 53 53 N N/A 30.03 1017 7 11 N/A
10:35 pm 22:35 Cloudy 54 12.1 36 2.2 51 51 N N/A 30.03 1017 10 16 N/A
10:55 pm 22:55 Mostly Cloudy 54 12.1 36 2.4 52 52 ESE 3 6 30.03 1017 10 16 N/A
11:15 pm 23:15 Mostly Cloudy 53 11.5 35 1.8 52 52 N N/A 30.03 1017 10 16 N/A
11:35 pm 23:35 Mostly Cloudy 51 10.7 37 2.5 57 57 NE 3 6 30.03 1017 10 16 N/A
11:55 pm 23:55 Partly Cloudy 50 10.1 38 3.5 64 64 E 5 7 30.06 1018 10 16 N/A

Powered by AerisWeather